| time (UTC) | temp F | wind direction | speed MPH | gust MPH | rain 1hr in | rain 24hr in | rain mn in | humidity % | barometer mb |
| 20260508104904 | 51 | 297 | 2.0 | 3.0 | 0.00 | 0.19 | 0.03 | 69 | 1012.1 |
| 20260508104404 | 50 | 269 | 1.0 | 3.0 | 0.00 | 0.19 | 0.03 | 71 | 1012.2 |
| 20260508103903 | 50 | 253 | 2.0 | 3.0 | 0.00 | 0.19 | 0.03 | 71 | 1012.2 |
| 20260508103404 | 50 | 352 | 2.0 | 6.0 | 0.00 | 0.19 | 0.03 | 70 | 1012.1 |
| 20260508102903 | 51 | 288 | 1.0 | 9.0 | 0.00 | 0.19 | 0.03 | 70 | 1012.0 |
| 20260508102404 | 50 | 289 | 1.0 | 3.0 | 0.00 | 0.19 | 0.03 | 73 | 1011.9 |
| 20260508101404 | 50 | 322 | 2.0 | 7.0 | 0.00 | 0.19 | 0.03 | 69 | 1011.7 |
| 20260508095904 | 52 | 235 | 2.0 | 7.0 | 0.00 | 0.19 | 0.03 | 69 | 1011.5 |
| 20260508095404 | 52 | 256 | 3.0 | 7.0 | 0.00 | 0.19 | 0.03 | 70 | 1011.4 |
| 20260508094903 | 50 | 354 | 2.0 | 7.0 | 0.00 | 0.19 | 0.03 | 70 | 1011.3 |
| 20260508094404 | 50 | 266 | 2.0 | 5.0 | 0.00 | 0.19 | 0.03 | 72 | 1011.2 |
| 20260508093904 | 50 | 271 | 2.0 | 9.0 | 0.00 | 0.19 | 0.03 | 73 | 1011.1 |
| 20260508093404 | 49 | 264 | 1.0 | 6.0 | 0.00 | 0.19 | 0.03 | 78 | 1011.1 |
| 20260508092904 | 49 | 273 | 1.0 | 3.0 | 0.00 | 0.19 | 0.03 | 79 | 1011.0 |
| 20260508092404 | 49 | 269 | 1.0 | 6.0 | 0.00 | 0.19 | 0.03 | 78 | 1010.9 |
| 20260508091904 | 49 | 265 | 1.0 | 3.0 | 0.00 | 0.19 | 0.03 | 81 | 1010.7 |
| 20260508091404 | 49 | 328 | 1.0 | 6.0 | 0.00 | 0.19 | 0.03 | 81 | 1010.7 |
| 20260508090903 | 49 | 299 | 0.0 | 0.0 | 0.00 | 0.19 | 0.03 | 77 | 1010.7 |
| 20260508090404 | 50 | 320 | 1.0 | 3.0 | 0.00 | 0.19 | 0.03 | 75 | 1010.8 |
| 20260508085904 | 51 | 278 | 2.0 | 5.0 | 0.01 | 0.19 | 0.03 | 71 | 1010.6 |
| 20260508085403 | 52 | 269 | 1.0 | 3.0 | 0.01 | 0.19 | 0.03 | 70 | 1010.3 |
| 20260508084404 | 52 | 314 | 1.0 | 2.0 | 0.01 | 0.19 | 0.03 | 70 | 1010.2 |
| 20260508083903 | 51 | 317 | 2.0 | 8.0 | 0.01 | 0.19 | 0.03 | 71 | 1010.1 |
| 20260508083404 | 50 | 288 | 1.0 | 7.0 | 0.01 | 0.19 | 0.03 | 76 | 1010.1 |
| 20260508082904 | 50 | 274 | 1.0 | 3.0 | 0.01 | 0.19 | 0.03 | 78 | 1009.9 |
| 20260508082403 | 49 | 319 | 1.0 | 3.0 | 0.01 | 0.19 | 0.03 | 79 | 1009.8 |
| 20260508081904 | 50 | 265 | 1.0 | 7.0 | 0.01 | 0.19 | 0.03 | 78 | 1009.8 |
| 20260508081404 | 50 | 241 | 1.0 | 3.0 | 0.01 | 0.19 | 0.03 | 80 | 1009.7 |
| 20260508080904 | 49 | 226 | 0.0 | 3.0 | 0.01 | 0.19 | 0.03 | 82 | 1009.6 |
| 20260508080403 | 49 | 272 | 0.0 | 3.0 | 0.01 | 0.19 | 0.03 | 83 | 1009.4 |
| 20260508075904 | 48 | 276 | 0.0 | 1.0 | 0.00 | 0.18 | 0.02 | 81 | 1009.4 |
| 20260508075404 | 49 | 316 | 0.0 | 1.0 | 0.00 | 0.18 | 0.02 | 81 | 1009.2 |
| 20260508074903 | 49 | 278 | 0.0 | 3.0 | 0.00 | 0.18 | 0.02 | 82 | 1009.2 |
| 20260508074405 | 49 | 272 | 1.0 | 3.0 | 0.00 | 0.18 | 0.02 | 81 | 1008.8 |
| 20260508073904 | 48 | 309 | 0.0 | 2.0 | 0.00 | 0.18 | 0.02 | 83 | 1008.7 |
| 20260508073403 | 48 | 300 | 1.0 | 3.0 | 0.00 | 0.18 | 0.02 | 83 | 1008.7 |
| 20260508072904 | 49 | 289 | 1.0 | 3.0 | 0.00 | 0.18 | 0.02 | 84 | 1008.6 |
| 20260508072404 | 48 | 281 | 2.0 | 3.0 | 0.00 | 0.18 | 0.02 | 84 | 1008.5 |
| 20260508071904 | 48 | 301 | 2.0 | 3.0 | 0.00 | 0.18 | 0.02 | 85 | 1008.4 |
| 20260508071404 | 48 | 298 | 0.0 | 3.0 | 0.00 | 0.18 | 0.02 | 87 | 1008.4 |
| 20260508070904 | 47 | 348 | 1.0 | 3.0 | 0.00 | 0.18 | 0.02 | 87 | 1008.3 |
| 20260508070404 | 47 | 280 | 1.0 | 3.0 | 0.00 | 0.18 | 0.02 | 87 | 1008.3 |
| 20260508065904 | 47 | 314 | 0.0 | 2.0 | 0.00 | 0.18 | 0.02 | 87 | 1008.3 |
| 20260508065404 | 47 | 330 | 1.0 | 2.0 | 0.00 | 0.18 | 0.02 | 86 | 1008.2 |
| 20260508064905 | 47 | 346 | 1.0 | 5.0 | 0.00 | 0.18 | 0.02 | 86 | 1008.2 |
| 20260508064404 | 48 | 263 | 2.0 | 8.0 | 0.00 | 0.18 | 0.02 | 86 | 1008.0 |
| 20260508063904 | 48 | 310 | 2.0 | 5.0 | 0.00 | 0.18 | 0.02 | 87 | 1007.8 |
| 20260508063404 | 47 | 331 | 2.0 | 3.0 | 0.00 | 0.18 | 0.02 | 87 | 1007.7 |
| 20260508062903 | 47 | 299 | 1.0 | 2.0 | 0.00 | 0.18 | 0.02 | 87 | 1007.6 |
| 20260508062404 | 47 | 280 | 2.0 | 3.0 | 0.00 | 0.18 | 0.02 | 87 | 1007.4 |
| 20260508060904 | 46 | 313 | 0.0 | 3.0 | 0.00 | 0.18 | 0.02 | 88 | 1007.4 |
| 20260508060404 | 46 | 355 | 0.0 | 1.0 | 0.00 | 0.18 | 0.02 | 88 | 1007.2 |
| 20260508055404 | 46 | 260 | 1.0 | 2.0 | 0.00 | 0.18 | 0.02 | 89 | 1007.0 |
| 20260508054904 | 46 | 266 | 1.0 | 2.0 | 0.00 | 0.18 | 0.02 | 88 | 1007.1 |
| 20260508054404 | 46 | 183 | 1.0 | 3.0 | 0.00 | 0.18 | 0.02 | 88 | 1006.8 |
| 20260508053904 | 46 | 177 | 1.0 | 3.0 | 0.00 | 0.18 | 0.02 | 89 | 1006.8 |
| 20260508053403 | 46 | 298 | 1.0 | 3.0 | 0.00 | 0.18 | 0.02 | 88 | 1006.8 |
| 20260508052904 | 45 | 222 | 1.0 | 2.0 | 0.00 | 0.18 | 0.02 | 88 | 1006.7 |
| 20260508052404 | 45 | 192 | 1.0 | 2.0 | 0.00 | 0.18 | 0.02 | 87 | 1006.6 |
| 20260508051904 | 46 | 196 | 2.0 | 6.0 | 0.00 | 0.18 | 0.02 | 87 | 1006.6 |
| 20260508051404 | 45 | 183 | 0.0 | 3.0 | 0.00 | 0.18 | 0.02 | 87 | 1006.7 |
| 20260508050904 | 45 | 186 | 0.0 | 1.0 | 0.00 | 0.18 | 0.02 | 87 | 1006.5 |
| 20260508050404 | 45 | 190 | 1.0 | 2.0 | 0.00 | 0.18 | 0.02 | 87 | 1006.5 |
| 20260508045904 | 46 | 198 | 0.0 | 3.0 | 0.00 | 0.18 | 0.02 | 87 | 1006.5 |
| 20260508045403 | 46 | 188 | 0.0 | 3.0 | 0.00 | 0.18 | 0.02 | 87 | 1006.5 |
| 20260508044904 | 46 | 184 | 1.0 | 5.0 | 0.00 | 0.18 | 0.02 | 87 | 1006.4 |
| 20260508044404 | 46 | 200 | 1.0 | 2.0 | 0.00 | 0.18 | 0.02 | 87 | 1006.4 |
| 20260508043904 | 46 | 186 | 1.0 | 2.0 | 0.00 | 0.18 | 0.02 | 87 | 1006.3 |
| 20260508042904 | 45 | 183 | 1.0 | 5.0 | 0.00 | 0.18 | 0.02 | 87 | 1006.3 |
| 20260508041904 | 45 | 167 | 0.0 | 6.0 | 0.01 | 0.18 | 0.02 | 87 | 1006.2 |
| 20260508041404 | 45 | 166 | 2.0 | 3.0 | 0.01 | 0.18 | 0.02 | 87 | 1006.2 |
| 20260508040905 | 45 | 161 | 1.0 | 3.0 | 0.01 | 0.18 | 0.02 | 87 | 1006.1 |
| 20260508040405 | 45 | 169 | 1.0 | 3.0 | 0.01 | 0.18 | 0.02 | 88 | 1006.2 |
| 20260508035904 | 45 | 170 | 0.0 | 3.0 | 0.01 | 0.18 | 0.02 | 88 | 1006.1 |
| 20260508034904 | 45 | 247 | 1.0 | 2.0 | 0.01 | 0.18 | 0.02 | 88 | 1005.9 |
| 20260508032903 | 46 | 243 | 1.0 | 2.0 | 0.01 | 0.18 | 0.02 | 87 | 1005.9 |
| 20260508032404 | 46 | 238 | 0.0 | 2.0 | 0.01 | 0.18 | 0.02 | 87 | 1005.9 |
| 20260508031904 | 46 | 237 | 1.0 | 3.0 | 0.00 | 0.17 | 0.01 | 87 | 1005.9 |
| 20260508031403 | 46 | 259 | 0.0 | 2.0 | 0.00 | 0.17 | 0.01 | 87 | 1005.8 |
| 20260508030904 | 46 | 259 | 0.0 | 1.0 | 0.00 | 0.17 | 0.01 | 87 | 1005.8 |
| 20260508030404 | 46 | 249 | 0.0 | 7.0 | 0.00 | 0.17 | 0.01 | 86 | 1005.7 |
| 20260508025403 | 45 | 168 | 1.0 | 6.0 | 0.01 | 0.17 | 0.01 | 87 | 1005.6 |
| 20260508024404 | 45 | 217 | 1.0 | 3.0 | 0.01 | 0.17 | 0.01 | 87 | 1005.3 |
| 20260508023404 | 45 | 175 | 2.0 | 6.0 | 0.01 | 0.17 | 0.01 | 88 | 1005.3 |
| 20260508022404 | 46 | 264 | 1.0 | 2.0 | 0.01 | 0.17 | 0.01 | 88 | 1005.3 |
| 20260508021904 | 46 | 251 | 1.0 | 3.0 | 0.01 | 0.17 | 0.01 | 88 | 1005.3 |
| 20260508021404 | 46 | 280 | 1.0 | 7.0 | 0.01 | 0.17 | 0.01 | 87 | 1005.3 |
| 20260508020904 | 46 | 176 | 2.0 | 5.0 | 0.01 | 0.17 | 0.01 | 86 | 1005.4 |
| 20260508020404 | 46 | 146 | 1.0 | 6.0 | 0.01 | 0.17 | 0.01 | 86 | 1005.3 |
| 20260508015904 | 46 | 48 | 2.0 | 8.0 | 0.00 | 0.16 | 0.00 | 85 | 1005.2 |
| 20260508014904 | 46 | 184 | 0.0 | 3.0 | 0.00 | 0.16 | 0.00 | 85 | 1005.1 |
| 20260508014404 | 46 | 174 | 2.0 | 7.0 | 0.00 | 0.16 | 0.00 | 85 | 1005.0 |
| 20260508013904 | 46 | 169 | 2.0 | 12.0 | 0.00 | 0.16 | 0.00 | 85 | 1004.9 |
| 20260508013403 | 46 | 175 | 3.0 | 6.0 | 0.00 | 0.16 | 0.00 | 86 | 1004.9 |
| 20260508012904 | 46 | 174 | 2.0 | 8.0 | 0.00 | 0.16 | 0.00 | 86 | 1004.9 |
| 20260508012403 | 46 | 233 | 1.0 | 3.0 | 0.00 | 0.16 | 0.00 | 86 | 1005.0 |
| 20260508011904 | 46 | 178 | 1.0 | 7.0 | 0.00 | 0.16 | 0.00 | 86 | 1004.9 |
| 20260508011404 | 46 | 165 | 2.0 | 8.0 | 0.00 | 0.16 | 0.00 | 86 | 1004.8 |
| 20260508010904 | 46 | 176 | 1.0 | 6.0 | 0.00 | 0.16 | 0.00 | 86 | 1004.8 |
| 20260508010404 | 46 | 219 | 1.0 | 3.0 | 0.00 | 0.16 | 0.00 | 85 | 1004.8 |
| 20260508005904 | 46 | 285 | 1.0 | 7.0 | 0.00 | 0.16 | 0.00 | 85 | 1004.7 |
| 20260508005404 | 46 | 170 | 2.0 | 8.0 | 0.00 | 0.16 | 0.00 | 85 | 1004.7 |
| 20260508004904 | 46 | 346 | 2.0 | 7.0 | 0.00 | 0.16 | 0.00 | 85 | 1004.5 |
| 20260508003903 | 46 | 280 | 2.0 | 7.0 | 0.00 | 0.16 | 0.00 | 85 | 1004.3 |
| 20260508002904 | 46 | 182 | 2.0 | 9.0 | 0.00 | 0.16 | 0.00 | 86 | 1004.2 |
| 20260508002405 | 46 | 197 | 3.0 | 7.0 | 0.00 | 0.16 | 0.00 | 86 | 1004.1 |
| 20260508000904 | 46 | 176 | 2.0 | 7.0 | 0.00 | 0.16 | 0.00 | 86 | 1004.2 |
| 20260508000405 | 46 | 178 | 2.0 | 6.0 | 0.00 | 0.16 | 0.00 | 86 | 1004.2 |
| 20260507235904 | 46 | 171 | 3.0 | 7.0 | 0.00 | 0.16 | 0.00 | 86 | 1004.1 |
| 20260507235405 | 46 | 178 | 2.0 | 7.0 | 0.01 | 0.16 | 0.00 | 86 | 1004.1 |
| 20260507234404 | 46 | 203 | 2.0 | 6.0 | 0.01 | 0.16 | 0.00 | 87 | 1004.0 |
| 20260507233904 | 46 | 173 | 2.0 | 8.0 | 0.01 | 0.16 | 0.00 | 87 | 1004.1 |
| 20260507233403 | 46 | 168 | 5.0 | 10.0 | 0.01 | 0.16 | 0.00 | 87 | 1004.1 |
| 20260507232904 | 46 | 173 | 3.0 | 6.0 | 0.01 | 0.16 | 0.00 | 87 | 1004.0 |
| 20260507231904 | 46 | 154 | 3.0 | 7.0 | 0.01 | 0.16 | 0.00 | 87 | 1004.2 |
| 20260507231404 | 46 | 221 | 3.0 | 13.0 | 0.01 | 0.16 | 0.00 | 87 | 1004.1 |
| 20260507230904 | 46 | 251 | 2.0 | 10.0 | 0.01 | 0.16 | 0.00 | 87 | 1004.1 |
| 20260507230404 | 46 | 0 | 1.0 | 9.0 | 0.01 | 0.16 | 0.00 | 86 | 1004.1 |
| 20260507225904 | 47 | 159 | 2.0 | 6.0 | 0.01 | 0.16 | 0.16 | 85 | 1004.2 |
| 20260507225404 | 47 | 294 | 2.0 | 6.0 | 0.01 | 0.16 | 0.16 | 84 | 1004.4 |
| 20260507224404 | 47 | 187 | 2.0 | 12.0 | 0.00 | 0.15 | 0.15 | 82 | 1004.0 |
| 20260507223904 | 47 | 167 | 2.0 | 8.0 | 0.00 | 0.15 | 0.15 | 82 | 1004.0 |
| 20260507223404 | 46 | 217 | 2.0 | 7.0 | 0.00 | 0.15 | 0.15 | 82 | 1004.1 |
| 20260507222904 | 46 | 169 | 1.0 | 7.0 | 0.00 | 0.15 | 0.15 | 83 | 1004.0 |
| 20260507222404 | 47 | 197 | 2.0 | 8.0 | 0.00 | 0.15 | 0.15 | 83 | 1004.1 |
| 20260507221904 | 47 | 155 | 2.0 | 8.0 | 0.00 | 0.15 | 0.15 | 84 | 1004.0 |
| 20260507220904 | 47 | 282 | 2.0 | 6.0 | 0.00 | 0.15 | 0.15 | 84 | 1004.0 |
| 20260507220404 | 47 | 163 | 2.0 | 9.0 | 0.00 | 0.15 | 0.15 | 84 | 1004.0 |
| 20260507215904 | 47 | 164 | 3.0 | 10.0 | 0.00 | 0.15 | 0.15 | 84 | 1004.0 |
| 20260507215404 | 48 | 230 | 2.0 | 8.0 | 0.00 | 0.15 | 0.15 | 84 | 1004.0 |
| 20260507214903 | 48 | 198 | 2.0 | 7.0 | 0.00 | 0.15 | 0.15 | 83 | 1004.1 |
| 20260507213905 | 48 | 191 | 3.0 | 7.0 | 0.00 | 0.15 | 0.15 | 81 | 1004.1 |
| 20260507213404 | 48 | 183 | 3.0 | 8.0 | 0.00 | 0.15 | 0.15 | 81 | 1004.0 |
| 20260507212905 | 48 | 197 | 3.0 | 8.0 | 0.00 | 0.15 | 0.15 | 82 | 1003.9 |
| 20260507211904 | 48 | 295 | 1.0 | 3.0 | 0.00 | 0.15 | 0.15 | 82 | 1004.0 |
| 20260507210904 | 48 | 175 | 5.0 | 8.0 | 0.00 | 0.15 | 0.15 | 82 | 1004.0 |
| 20260507210404 | 47 | 166 | 2.0 | 8.0 | 0.00 | 0.15 | 0.15 | 82 | 1004.1 |
| 20260507205904 | 48 | 219 | 2.0 | 8.0 | 0.00 | 0.15 | 0.15 | 83 | 1004.0 |
| 20260507205404 | 48 | 177 | 3.0 | 8.0 | 0.00 | 0.15 | 0.15 | 83 | 1004.0 |
| 20260507204905 | 48 | 195 | 5.0 | 13.0 | 0.00 | 0.15 | 0.15 | 83 | 1004.0 |
| 20260507204404 | 48 | 173 | 2.0 | 10.0 | 0.00 | 0.15 | 0.15 | 83 | 1004.0 |
| 20260507203904 | 48 | 174 | 2.0 | 9.0 | 0.00 | 0.15 | 0.15 | 83 | 1003.9 |
| 20260507203404 | 48 | 198 | 1.0 | 3.0 | 0.00 | 0.15 | 0.15 | 84 | 1003.9 |
| 20260507202904 | 48 | 161 | 2.0 | 6.0 | 0.00 | 0.15 | 0.15 | 84 | 1003.9 |
| 20260507202404 | 48 | 256 | 1.0 | 5.0 | 0.00 | 0.15 | 0.15 | 83 | 1003.9 |
| 20260507201904 | 48 | 245 | 1.0 | 3.0 | 0.00 | 0.15 | 0.15 | 82 | 1003.9 |
| 20260507201404 | 49 | 276 | 0.0 | 2.0 | 0.00 | 0.15 | 0.15 | 81 | 1003.9 |
| 20260507200904 | 49 | 165 | 2.0 | 9.0 | 0.00 | 0.15 | 0.15 | 80 | 1003.9 |
| 20260507200403 | 49 | 184 | 2.0 | 6.0 | 0.00 | 0.15 | 0.15 | 80 | 1003.7 |
| 20260507195904 | 49 | 164 | 3.0 | 12.0 | 0.00 | 0.15 | 0.15 | 79 | 1003.7 |
| 20260507195404 | 49 | 176 | 3.0 | 9.0 | 0.00 | 0.15 | 0.15 | 78 | 1003.8 |
| 20260507194903 | 49 | 173 | 4.0 | 9.0 | 0.00 | 0.15 | 0.15 | 78 | 1003.7 |
| 20260507194403 | 49 | 179 | 3.0 | 9.0 | 0.00 | 0.15 | 0.15 | 78 | 1003.8 |
| 20260507193904 | 49 | 158 | 3.0 | 9.0 | 0.00 | 0.15 | 0.15 | 79 | 1003.7 |
| 20260507193404 | 49 | 168 | 3.0 | 12.0 | 0.00 | 0.15 | 0.15 | 79 | 1003.7 |
| 20260507192904 | 49 | 179 | 3.0 | 8.0 | 0.00 | 0.15 | 0.15 | 80 | 1003.7 |
| 20260507192405 | 49 | 170 | 4.0 | 7.0 | 0.00 | 0.15 | 0.15 | 80 | 1003.7 |
| 20260507191904 | 49 | 182 | 2.0 | 10.0 | 0.00 | 0.15 | 0.15 | 79 | 1003.7 |
| 20260507190404 | 49 | 195 | 4.0 | 13.0 | 0.00 | 0.15 | 0.15 | 82 | 1003.6 |
| 20260507185904 | 49 | 144 | 3.0 | 12.0 | 0.00 | 0.15 | 0.15 | 83 | 1003.7 |
| 20260507184903 | 50 | 181 | 3.0 | 10.0 | 0.00 | 0.15 | 0.15 | 84 | 1003.6 |
| 20260507184403 | 49 | 180 | 3.0 | 15.0 | 0.00 | 0.15 | 0.15 | 83 | 1003.7 |
| 20260507182904 | 49 | 187 | 6.0 | 15.0 | 0.00 | 0.15 | 0.15 | 84 | 1003.6 |
| 20260507181904 | 49 | 168 | 3.0 | 12.0 | 0.00 | 0.15 | 0.15 | 83 | 1003.6 |
| 20260507181404 | 50 | 174 | 3.0 | 13.0 | 0.00 | 0.15 | 0.15 | 83 | 1003.6 |
| 20260507180904 | 50 | 200 | 4.0 | 13.0 | 0.00 | 0.15 | 0.15 | 82 | 1003.6 |
| 20260507175904 | 50 | 165 | 5.0 | 12.0 | 0.00 | 0.15 | 0.15 | 82 | 1003.5 |
| 20260507175404 | 50 | 180 | 5.0 | 10.0 | 0.00 | 0.15 | 0.15 | 82 | 1003.5 |
| 20260507174904 | 50 | 195 | 5.0 | 13.0 | 0.00 | 0.15 | 0.15 | 82 | 1003.5 |
| 20260507174404 | 50 | 191 | 4.0 | 8.0 | 0.00 | 0.15 | 0.15 | 82 | 1003.6 |
| 20260507173904 | 50 | 160 | 3.0 | 7.0 | 0.00 | 0.15 | 0.15 | 83 | 1003.7 |
| 20260507173404 | 50 | 175 | 4.0 | 12.0 | 0.00 | 0.15 | 0.15 | 83 | 1003.7 |
| 20260507172904 | 50 | 161 | 3.0 | 12.0 | 0.00 | 0.15 | 0.15 | 84 | 1003.6 |
| 20260507172404 | 50 | 182 | 3.0 | 9.0 | 0.00 | 0.15 | 0.15 | 84 | 1003.7 |
| 20260507171904 | 50 | 167 | 2.0 | 13.0 | 0.00 | 0.15 | 0.15 | 84 | 1003.8 |
| 20260507171404 | 50 | 171 | 4.0 | 13.0 | 0.00 | 0.15 | 0.15 | 84 | 1003.7 |
| 20260507170904 | 50 | 178 | 5.0 | 13.0 | 0.00 | 0.15 | 0.15 | 85 | 1003.8 |
| 20260507170404 | 50 | 174 | 3.0 | 12.0 | 0.00 | 0.15 | 0.15 | 85 | 1003.8 |
| 20260507165904 | 50 | 186 | 3.0 | 14.0 | 0.00 | 0.15 | 0.15 | 85 | 1003.9 |
| 20260507164904 | 50 | 151 | 3.0 | 8.0 | 0.00 | 0.15 | 0.15 | 87 | 1003.8 |
| 20260507164404 | 50 | 171 | 3.0 | 15.0 | 0.00 | 0.15 | 0.15 | 87 | 1003.9 |
| 20260507163404 | 50 | 156 | 4.0 | 10.0 | 0.01 | 0.15 | 0.15 | 87 | 1003.8 |
| 20260507162904 | 50 | 148 | 4.0 | 12.0 | 0.01 | 0.15 | 0.15 | 87 | 1003.9 |
| 20260507162404 | 50 | 202 | 3.0 | 8.0 | 0.01 | 0.15 | 0.15 | 88 | 1003.8 |
| 20260507161404 | 49 | 191 | 4.0 | 9.0 | 0.05 | 0.15 | 0.15 | 88 | 1003.9 |
| 20260507160904 | 49 | 253 | 3.0 | 16.0 | 0.14 | 0.15 | 0.15 | 89 | 1003.8 |
| 20260507160403 | 49 | 185 | 4.0 | 9.0 | 0.14 | 0.15 | 0.15 | 89 | 1004.0 |
| 20260507155404 | 49 | 133 | 3.0 | 12.0 | 0.15 | 0.15 | 0.15 | 90 | 1004.0 |
| 20260507154904 | 49 | 194 | 3.0 | 9.0 | 0.15 | 0.15 | 0.15 | 90 | 1003.9 |
| 20260507154404 | 48 | 268 | 3.0 | 21.0 | 0.15 | 0.15 | 0.15 | 90 | 1004.1 |
| 20260507153904 | 48 | 166 | 3.0 | 12.0 | 0.14 | 0.14 | 0.14 | 90 | 1004.1 |
| 20260507153404 | 48 | 156 | 4.0 | 12.0 | 0.14 | 0.14 | 0.14 | 90 | 1004.2 |
| 20260507152903 | 48 | 181 | 2.0 | 10.0 | 0.14 | 0.14 | 0.14 | 90 | 1004.3 |
| 20260507152404 | 49 | 161 | 2.0 | 8.0 | 0.14 | 0.14 | 0.14 | 90 | 1004.2 |
| 20260507151904 | 49 | 161 | 3.0 | 9.0 | 0.12 | 0.12 | 0.12 | 90 | 1004.3 |
| 20260507151406 | 34 | 168 | 0.0 | 2.0 | 0.10 | 0.10 | 0.10 | 90 | 1016.7 |